Regional Weather Roundup
Issued by NWS

Home | Current Version | Previous Version | Text Only | Print | Product List | Glossary On
Versions: 1 2 3 4 5 6 7 8 9 10 11 12 13 14 15 16 17 18 19 20 21 22 23 24 25 26 27 28 29 30 31 32 33 34 35 36 37 38 39 40 41 42 43 44 45 46 47 48 49 50
000
ASUS43 KLOT 070912
RWRIL

ILLINOIS REGIONAL WEATHER ROUNDUP
NATIONAL WEATHER SERVICE CHICAGO/ROMEOVILLE IL
400 AM CDT THU MAY 07 2015

NOTE: "FAIR" INDICATES FEW OR NO CLOUDS BELOW 12,000 FEET WITH NO
SIGNIFICANT WEATHER AND/OR OBSTRUCTIONS TO VISIBILITY.

* THESE STATIONS ARE NOT UNDER NWS QUALITY CONTROL. THEY ALSO MAY NOT
  REPORT WEATHER SUCH AS PRECIPITATION OR FOG.

ILZ001-002-007-009-015-016-024-071000-
NORTHWEST ILLINOIS

CITY           SKY/WX    TMP DP  RH WIND       PRES   REMARKS
MOLINE         CLEAR     64  53  67 S9        29.97S
STERLING*      CLEAR     63  54  72 SE5       30.01S
SAVANNA*       CLEAR     62  54  74 S7        29.99S
$$

ILZ003-004-008-010-011-017-018-071000-
NORTH CENTRAL ILLINOIS

CITY           SKY/WX    TMP DP  RH WIND       PRES   REMARKS
ROCKFORD       CLEAR     60  53  77 SE6       30.03S
FREEPORT*      CLEAR     58  53  85 S9        30.02S
ROCHELLE*      CLEAR     60  55  83 S7        30.03R
DE KALB*       CLEAR     58  53  83 SE6       30.05R
PERU*          CLEAR     63  55  73 SE8       30.03R
$$

ILZ005-006-012>014-019>023-071000-
NORTHEAST ILLINOIS

CITY           SKY/WX    TMP DP  RH WIND       PRES   REMARKS
CHICAGO-OHARE  PTCLDY    54  49  83 E6        30.05S
CHICAGO-MIDWAY FAIR      59  52  77 CALM      30.05S
AURORA         CLEAR     59  53  80 SE5       30.04S
LANSING*       CLEAR     58  53  80 CALM      30.06S
JOLIET*        CLEAR     61  56  83 SE3       30.04S
WAUKEGAN       PTCLDY    45  44  97 CALM      30.05S
DUPAGE AIRPORT CLEAR     58  53  84 CALM      30.04S
KANKAKEE*      CLEAR     61  56  83 CALM      30.06S
WHEELING       PTCLDY    50  47  89 CALM      30.06F
MORRIS*        CLEAR     62  54  76 SE5       30.03R
ROMEOVILLE*    CLEAR     60  53  76 SE7       30.05R
NORTHERLY ISL    N/A     51  48  89 CALM        N/A
$$

LMZ740>746-071000-
SOUTHERN LAKE MICHIGAN

STATION/POSITION SKY/WX   TEMP    WIND        PRES    VSBY  WAVE
                          AIR SEA DIR/SP/G                  HT/PER
                          (F)     (DEG/KT/KT) (MB)    (MI)  (FT/S)
HARRISON CRIB              56     180/  6/  6   N/A
BURNHAM HARBOR             51      CALM  /  1   N/A
CALUMET HARBOR             52      CALM  /  2   N/A
BURNS HARBOR               69     130/  9/ 14 1018.6F
MICHIGAN CITY              67     120/ 10/ 13   N/A
MICHIGAN CITY 6N           61 53  160/  8/ 10   N/A           1
ST. JOSEPH                 60 51  160/ 10/ 12   N/A           1
$$

ILZ025>027-034>036-040-047-049-050-058-095>099-071000-
WEST-CENTRAL ILLINOIS

CITY           SKY/WX    TMP DP  RH WIND       PRES   REMARKS
QUINCY         PTCLDY    67  51  56 S9        29.97F
GALESBURG*     PTCLDY    64  55  71 SE7       29.99S
MACOMB*        PTCLDY    64  55  73 S9        30.00F
JACKSONVILLE*  PTCLDY    70  54  55 SE9       30.00F
PITTSFIELD*    MOCLDY    66  53  62 SE5       30.00S
$$

ILZ028>032-037-038-041>044-048-051>054-059>061-071000-
CENTRAL ILLINOIS

CITY           SKY/WX    TMP DP  RH WIND       PRES   REMARKS
PONTIAC        CLEAR     59  56  90 SE7       30.05S
BLOOMINGTON    CLEAR     61  55  80 S8        30.06R
DECATUR        CLEAR     64  54  69 S6        30.05S
PEORIA         PTCLDY    69  54  58 S8        30.01S
LACON*         CLEAR     63  54  71 CALM      30.01S
LINCOLN*       CLEAR     63  55  75 S3        30.02S
SPRINGFIELD    PTCLDY    66  54  65 S9        30.02F
TAYLORVILLE    CLEAR     61  54  77 SE6       30.04S
$$

ILZ033-039-045-046-055>057-062-063-071000-
EAST-CENTRAL ILLINOIS

CITY           SKY/WX    TMP DP  RH WIND       PRES   REMARKS
CHAMPAIGN      CLEAR     62  53  72 SE8       30.06S
DANVILLE*      CLEAR     62  54  75 CALM      30.05S
RANTOUL*       CLEAR     63  55  75 SE5       30.07R
MATTOON        CLEAR     62  55  77 S3        30.05S
PARIS*         CLEAR     64  55  75 CALM      30.08S
$$

ILZ079-100>102-071000-
SOUTHWEST ILLINOIS

CITY           SKY/WX    TMP DP  RH WIND       PRES   REMARKS
ALTON          MOCLDY    62  59  88 SE7       30.03R
BELLEVILLE     PTCLDY    58  58  98 CALM      30.03S
CAHOKIA*       PTCLDY    65  54  67 S6        30.02R
SPARTA*        PTCLDY    60  55  84 SE5       30.05R
$$

ILZ064>066-069>071-074>076-080>082-084>086-088>090-092>094-071000-
SOUTH-CENTRAL ILLINOIS

CITY           SKY/WX    TMP DP  RH WIND       PRES   REMARKS
CARBONDALE     CLEAR     58  54  86 SE3       30.05S
CAIRO*         CLEAR     56  53  89 CALM      30.06R
EFFINGHAM*     CLEAR     60  54  80 CALM      30.08R
MARION         CLEAR     63  57  82 CALM      30.06S
MT. VERNON     CLEAR    N/A N/A N/A CALM      30.06S
CENTRALIA*     CLEAR     60  55  81 SE5       30.05S
SALEM*         CLEAR     65  56  73 SE3       30.06S
METROPOLIS*    CLEAR     57  57 100 CALM      30.06S FOG
$$

ILZ067-068-072-073-078-083-087-091-071000-
SOUTHEAST ILLINOIS

CITY           SKY/WX    TMP DP  RH WIND       PRES   REMARKS
LAWRENCEVILLE  CLEAR     62  57  83 E3        30.07S
FLORA*         CLEAR     56  53  90 CALM      30.07S
FAIRFIELD*     CLEAR     60  57  92 CALM      30.05F
HARRISBURG*    CLEAR     58  57  97 CALM      30.08R
ROBINSON*      CLEAR     59  55  86 CALM      30.08S
CARMI*         CLEAR     57  53  85 CALM      30.06S HAZE
$$

ABBREVIATIONS USED IN REMARKS
   TC - TEMPERATURE IN CELSIUS
  WCI - WIND CHILL INDEX
   HX - HEAT INDEX
  VSB - VISIBILITY
$$



USA.gov is the U.S. government's official web portal to all federal, state and local government web resources and services.